Wind_Speed
62 62 62 62 62 62 62 62 61 61 61 61 62 63 64 64 64 65 64 64 64 64 64 64 64 65 65 65 64 65 65 66 66 64 63 63 63 63 63 63 62 61 60
64 64 64 64 64 64 64 64 64 64 65 65 65 65 66 66 66 66 66 66 66 66 66 66 66 66 66 66 66 66 66 66 67 67 65 65 64 64 64 64 63 63 62
65 65 66 66 66 66 66 66 66 66 66 66 67 67 67 67 67 67 67 67 67 67 67 67 66 66 66 66 66 66 67 67 67 68 67 67 66 65 65 65 64 63 63
65 66 66 66 66 66 66 66 66 66 66 67 67 67 67 67 67 67 67 67 67 66 66 66 66 66 66 67 67 67 68 68 68 68 68 68 68 67 68 67 66 65 65
64 65 65 65 65 65 66 66 66 67 67 67 67 67 67 67 66 66 66 66 66 66 66 66 66 66 67 68 68 68 68 69 69 70 69 69 69 68 68 69 69 68 67
63 63 64 64 65 65 66 66 66 66 66 66 66 66 66 66 66 66 66 66 66 66 66 66 66 67 67 68 69 69 69 69 70 70 71 70 70 70 69 69 69 69 67
62 63 63 64 64 65 66 66 66 66 66 66 66 66 65 65 65 65 66 66 66 66 66 67 68 68 68 68 69 70 70 70 71 71 71 71 72 71 71 70 69 69 68
62 62 63 63 64 65 65 66 66 67 67 66 66 66 66 66 66 66 66 67 67 68 68 69 69 69 69 70 70 70 70 70 71 71 71 71 71 71 71 71 71 70 68
62 62 62 62 62 63 63 64 65 65 66 66 66 67 67 67 67 67 67 67 68 69 69 70 70 69 70 70 71 71 71 71 71 71 71 70 71 71 70 69 68 68 68
61 61 62 62 62 62 62 63 63 63 64 65 66 67 67 67 68 68 68 69 69 70 70 70 70 71 71 71 72 72 72 71 71 70 69 69 69 68 67 67 68 68 67
60 61 61 62 62 63 63 63 63 63 63 64 65 65 66 66 67 68 68 69 69 70 70 70 71 71 72 72 72 72 71 71 70 69 69 68 68 67 67 67 68 68 68
59 60 60 60 61 62 63 63 63 63 64 64 65 65 65 66 66 67 69 70 70 70 70 69 69 70 71 71 71 71 71 71 71 70 69 68 67 67 67 67 67 67 67
57 58 58 58 59 60 61 62 62 63 63 63 64 65 65 66 67 67 68 69 69 69 69 69 69 70 70 70 70 70 70 70 70 69 68 67 66 66 67 67 67 66 66
56 56 57 58 58 58 60 61 62 63 64 64 64 64 64 65 65 66 66 66 67 67 68 68 69 68 68 68 68 68 68 68 68 67 67 67 66 65 65 66 65 65 65
53 54 55 56 57 58 59 59 60 61 62 62 63 63 64 65 65 66 66 66 66 67 67 67 66 66 66 66 66 66 66 66 66 65 64 64 65 65 65 65 64 64 64
53 53 54 55 56 57 59 60 60 61 62 63 63 64 65 65 65 66 66 67 67 66 66 66 66 65 65 65 65 65 65 64 63 62 62 62 62 63 63 63 63 62 61
52 53 54 56 57 58 59 60 61 62 63 64 65 65 66 66 66 66 66 67 67 67 67 66 66 66 65 64 63 62 61 61 61 61 62 62 62 61 62 61 60 59 58
52 53 55 56 58 59 61 61 62 63 63 65 65 65 65 66 66 66 66 66 66 67 67 67 66 66 64 63 61 60 60 60 60 61 60 60 60 60 60 58 57 57 57
53 54 56 57 58 60 61 62 63 64 64 65 65 65 66 66 67 66 65 65 66 66 66 66 65 63 62 61 60 60 60 60 60 60 60 60 59 59 58 57 56 56 56
55 57 58 58 59 60 61 62 63 64 65 65 65 66 66 67 66 65 65 65 64 64 63 63 62 61 61 60 60 60 60 59 59 58 58 58 57 56 55 55 54 54 53
56 58 59 60 60 61 62 62 63 64 64 64 64 64 64 64 64 63 62 62 61 61 60 60 59 59 59 60 60 59 59 58 57 56 56 56 55 54 54 53 53 52 52
55 56 57 57 58 59 59 60 61 61 62 62 62 62 61 61 61 61 60 59 58 58 58 58 57 57 57 57 57 56 55 55 54 54 53 53 53 52 52 51 51 51 50
56 56 56 57 57 58 58 58 59 59 58 58 58 57 57 56 56 56 56 56 55 55 55 54 54 54 54 54 54 53 53 53 53 52 51 51 51 51 50 50 49 48 47
56 56 56 56 56 56 56 56 55 55 55 55 54 54 53 53 53 53 53 53 53 52 52 52 52 52 53 53 52 52 52 52 52 51 51 50 50 49 48 48 47 45 44
55 54 54 54 54 54 54 53 53 53 53 53 53 53 53 53 53 52 52 52 52 52 51 51 52 51 51 52 51 51 51 51 50 50 49 49 48 47 46 46 45 44 43
53 53 53 53 53 53 52 52 52 52 52 52 52 52 52 52 52 52 52 52 51 51 51 51 51 51 50 50 50 50 49 49 49 49 48 48 47 47 46 45 44 43 43
Wind_Direction
258 259 259 261 262 263 263 264 265 266 267 268 269 270 271 272 273 273 273 274 275 276 276 277 278 279 279 280 280 281 281 281 281 281 281 280 281 281 281 283 284 285 285
257 258 259 261 262 262 263 264 265 266 267 268 269 270 270 271 272 273 274 274 274 275 277 277 278 279 279 280 280 280 280 281 281 281 281 280 281 281 281 282 283 283 284
257 258 260 261 262 262 263 264 265 266 267 267 268 269 270 271 271 272 273 274 275 275 276 277 277 278 279 279 279 280 280 280 281 281 281 281 281 281 281 282 282 282 283
258 258 259 260 261 262 263 264 264 265 266 267 268 268 269 270 271 272 273 274 274 275 276 276 277 278 278 279 280 280 280 281 281 281 282 282 282 282 282 282 282 282 282
258 259 259 260 261 262 262 263 264 265 266 267 267 268 269 270 270 271 272 273 273 274 276 276 277 278 279 280 280 281 282 282 282 281 281 282 282 282 282 282 282 282 282
259 260 261 261 261 262 262 263 264 265 266 267 268 268 269 269 270 271 272 273 274 275 276 277 278 279 279 280 281 282 282 282 282 281 281 282 282 282 282 281 281 281 281
259 260 260 261 261 262 262 263 264 265 265 266 267 268 269 270 271 271 273 274 274 275 276 277 278 278 279 280 280 281 281 282 282 281 281 281 281 281 281 281 281 281 282
259 259 260 260 261 261 262 263 264 265 266 266 267 268 269 270 271 272 273 274 275 276 277 278 278 278 279 279 280 280 281 281 281 282 281 281 281 281 282 281 281 282 281
259 259 259 260 260 261 261 262 263 264 265 266 267 268 269 270 271 272 273 274 275 277 278 278 279 279 280 280 280 281 281 281 282 282 281 280 280 281 281 282 282 282 282
260 260 260 260 261 262 262 263 264 265 266 267 267 269 269 270 271 272 273 275 276 277 278 279 280 280 280 281 281 281 281 281 281 281 280 280 281 281 281 281 282 282 282
260 261 261 262 262 263 264 265 266 266 267 268 268 269 270 271 272 273 275 276 277 278 279 280 280 281 281 281 281 281 280 280 280 280 280 280 280 280 280 281 282 283 283
261 261 262 263 264 265 265 266 267 268 270 270 270 271 272 273 274 275 276 277 278 279 280 280 280 280 281 281 281 281 280 280 280 280 280 280 279 279 280 280 281 282 283
261 262 263 265 265 265 266 267 268 269 270 271 272 273 274 275 276 277 278 279 280 280 280 280 281 281 281 281 282 281 280 280 281 281 281 280 280 280 280 280 280 281 282
262 263 264 265 265 266 267 267 268 269 269 271 272 273 274 276 277 279 279 279 279 280 280 281 281 281 281 282 281 281 281 281 281 281 281 281 281 281 280 281 281 282 282
264 264 265 265 266 267 268 268 269 270 271 272 272 273 275 276 277 277 278 279 280 280 280 281 282 282 282 282 282 282 282 282 281 281 282 282 281 281 281 282 282 283 282
264 264 265 266 267 269 268 269 270 272 272 273 274 275 276 277 277 277 278 278 279 280 281 281 282 283 283 283 283 282 282 282 281 281 282 282 282 282 282 282 282 282 283
266 267 267 267 268 269 270 271 272 273 274 275 276 276 277 277 278 278 279 280 280 280 281 281 282 282 283 283 283 283 282 282 281 282 282 283 283 283 283 283 282 282 282
267 268 269 269 269 270 271 272 274 275 276 277 277 277 277 277 278 279 280 280 281 281 281 281 282 283 283 282 282 283 283 283 282 283 283 283 284 284 284 283 282 282 282
269 270 270 271 271 271 272 274 275 276 277 277 277 278 278 278 279 280 280 280 281 282 282 281 282 282 282 282 283 283 283 283 283 283 283 284 284 284 284 283 282 282 281
270 272 272 272 273 273 274 275 276 277 278 279 279 279 279 280 280 280 281 281 281 282 282 281 281 281 282 282 283 284 284 283 283 284 284 284 284 284 283 283 283 282 281
272 273 274 274 274 275 276 276 277 278 279 279 280 280 280 280 280 281 281 281 281 281 282 281 281 281 282 282 282 282 283 283 283 283 283 284 284 284 283 283 283 282 281
273 274 275 275 276 276 277 277 278 278 278 279 280 280 280 280 281 281 281 281 281 281 281 281 281 281 281 282 282 282 282 282 283 283 283 284 284 283 283 283 283 283 282
275 276 276 277 277 278 278 278 278 279 279 280 281 281 281 281 281 282 282 282 282 282 282 282 282 282 281 282 281 281 281 281 282 283 283 284 284 283 282 282 282 281 281
276 276 276 277 277 278 278 278 279 279 280 281 281 282 282 282 282 282 282 283 282 282 283 282 282 282 282 282 282 282 282 282 283 283 282 282 283 282 282 282 281 280 280
275 276 276 277 277 277 278 278 279 279 280 281 281 282 282 282 282 282 282 282 282 282 283 283 283 283 283 282 282 282 282 282 282 282 282 281 282 283 282 282 280 279 279
276 276 276 277 277 277 277 278 279 279 279 279 280 281 281 281 282 282 282 283 283 283 283 284 284 284 283 283 283 283 282 282 282 282 281 282 282 282 282 281 279 279 278
Height
5713 5714 5716 5717 5718 5718 5719 5720 5720 5720 5719 5719 5718 5717 5716 5715 5714 5712 5711 5710 5708 5707 5705 5703 5701 5698 5696 5694 5691 5689 5687 5684 5683 5685 5682 5679 5676 5673 5670 5666 5664 5662 5660
5697 5699 5700 5701 5702 5703 5703 5704 5704 5704 5704 5703 5703 5702 5701 5699 5698 5697 5695 5694 5692 5691 5689 5687 5685 5682 5680 5678 5675 5673 5671 5668 5666 5666 5666 5663 5660 5657 5654 5651 5648 5646 5644
5681 5683 5684 5685 5686 5686 5687 5688 5688 5688 5688 5687 5686 5685 5684 5683 5682 5680 5679 5677 5676 5674 5672 5670 5668 5666 5664 5661 5659 5656 5654 5651 5648 5647 5647 5645 5643 5640 5637 5635 5632 5630 5628
5665 5666 5667 5668 5669 5670 5670 5671 5671 5671 5671 5670 5669 5668 5667 5666 5665 5664 5662 5661 5659 5657 5655 5653 5651 5649 5647 5644 5642 5640 5637 5634 5631 5629 5628 5627 5625 5622 5619 5617 5615 5614 5612
5647 5649 5650 5651 5652 5653 5653 5654 5654 5654 5653 5653 5652 5651 5650 5649 5648 5646 5645 5643 5641 5640 5638 5636 5634 5632 5629 5627 5625 5623 5620 5616 5613 5611 5609 5608 5607 5604 5601 5598 5595 5595 5594
5630 5632 5633 5634 5635 5636 5636 5636 5637 5636 5636 5635 5634 5634 5633 5632 5631 5629 5627 5626 5624 5622 5621 5619 5617 5615 5612 5610 5607 5605 5601 5598 5595 5592 5590 5589 5588 5585 5582 5578 5575 5574 5574
5613 5615 5616 5617 5618 5618 5619 5619 5619 5619 5618 5618 5617 5616 5615 5614 5612 5611 5609 5608 5606 5605 5603 5601 5599 5597 5594 5592 5590 5587 5583 5580 5576 5573 5571 5570 5568 5565 5561 5559 5556 5553 5553
5596 5597 5598 5599 5600 5601 5601 5601 5601 5601 5600 5600 5599 5598 5597 5596 5595 5593 5591 5590 5588 5587 5585 5582 5580 5578 5576 5573 5571 5568 5565 5562 5558 5554 5552 5550 5546 5543 5540 5538 5535 5533 5534
5578 5580 5581 5582 5582 5583 5583 5583 5583 5583 5582 5582 5581 5580 5579 5578 5576 5575 5573 5571 5570 5568 5566 5564 5561 5559 5557 5553 5551 5548 5546 5543 5539 5535 5531 5529 5526 5523 5520 5517 5515 5512 5512
5561 5562 5563 5564 5565 5565 5565 5565 5565 5565 5565 5564 5563 5562 5561 5560 5558 5557 5555 5553 5552 5550 5547 5545 5542 5539 5536 5533 5530 5527 5526 5523 5519 5516 5513 5510 5507 5504 5501 5498 5495 5492 5490
5544 5545 5545 5546 5547 5547 5548 5548 5547 5547 5546 5545 5545 5544 5543 5541 5540 5538 5536 5533 5532 5530 5528 5525 5522 5518 5515 5512 5509 5506 5504 5501 5498 5496 5493 5491 5488 5486 5483 5480 5476 5473 5470
5526 5527 5528 5528 5529 5529 5530 5530 5529 5529 5528 5527 5526 5525 5524 5523 5521 5519 5517 5514 5512 5510 5508 5505 5502 5498 5495 5492 5489 5486 5483 5480 5477 5475 5473 5471 5469 5467 5465 5461 5458 5454 5451
5509 5510 5510 5511 5511 5512 5512 5512 5512 5511 5510 5510 5509 5507 5506 5504 5502 5500 5498 5495 5492 5489 5487 5485 5482 5478 5475 5472 5468 5465 5462 5459 5456 5454 5452 5451 5449 5446 5444 5442 5439 5436 5433
5492 5493 5493 5494 5494 5494 5494 5494 5494 5493 5492 5492 5490 5489 5487 5486 5484 5481 5478 5476 5472 5469 5467 5464 5462 5458 5455 5452 5448 5445 5441 5438 5435 5433 5432 5430 5428 5425 5423 5420 5418 5416 5413
5475 5476 5476 5477 5477 5477 5477 5476 5476 5475 5474 5473 5471 5470 5468 5467 5465 5462 5459 5456 5453 5450 5447 5445 5442 5439 5436 5433 5429 5426 5422 5419 5416 5414 5412 5410 5408 5405 5403 5400 5397 5394 5392
5460 5460 5460 5460 5460 5460 5459 5459 5458 5457 5455 5454 5452 5451 5449 5447 5445 5442 5439 5436 5433 5431 5428 5425 5423 5420 5417 5414 5410 5407 5404 5400 5398 5395 5393 5390 5388 5386 5384 5382 5378 5375 5373
5444 5444 5443 5443 5443 5443 5442 5441 5440 5439 5437 5435 5433 5431 5429 5427 5424 5422 5419 5416 5414 5411 5408 5406 5403 5401 5397 5394 5391 5388 5385 5382 5380 5377 5374 5372 5369 5366 5364 5362 5359 5356 5354
5427 5427 5426 5426 5425 5424 5423 5422 5421 5419 5418 5416 5414 5411 5409 5406 5404 5401 5399 5396 5394 5391 5388 5386 5384 5381 5378 5375 5373 5370 5367 5365 5362 5359 5356 5353 5350 5347 5345 5342 5340 5338 5336
5410 5410 5409 5408 5407 5406 5404 5403 5401 5399 5398 5396 5394 5392 5389 5386 5384 5382 5379 5376 5374 5372 5369 5366 5364 5361 5359 5357 5354 5352 5349 5346 5343 5341 5338 5335 5332 5329 5327 5324 5322 5319 5317
5393 5392 5391 5390 5389 5387 5386 5384 5382 5380 5378 5376 5374 5371 5368 5366 5364 5362 5359 5356 5354 5351 5349 5346 5344 5342 5340 5338 5335 5333 5331 5328 5326 5323 5320 5318 5315 5312 5309 5306 5304 5302 5301
5376 5375 5373 5372 5370 5369 5367 5365 5363 5361 5358 5356 5354 5351 5348 5345 5343 5341 5339 5336 5334 5331 5329 5327 5325 5323 5321 5319 5317 5315 5313 5310 5308 5306 5303 5301 5298 5295 5292 5290 5288 5286 5284
5359 5357 5356 5354 5352 5350 5348 5346 5344 5341 5339 5337 5334 5331 5328 5326 5324 5322 5319 5317 5314 5312 5310 5308 5306 5304 5302 5300 5299 5297 5295 5293 5291 5289 5286 5284 5281 5279 5277 5275 5273 5270 5268
5342 5340 5338 5336 5334 5332 5330 5328 5325 5323 5320 5317 5315 5312 5310 5307 5305 5303 5301 5299 5297 5295 5292 5290 5288 5286 5284 5282 5281 5279 5278 5276 5274 5272 5270 5268 5266 5263 5261 5259 5257 5255 5253
5325 5323 5321 5319 5317 5314 5312 5309 5307 5304 5302 5299 5297 5295 5293 5290 5288 5286 5284 5282 5280 5277 5275 5273 5271 5269 5267 5265 5264 5262 5261 5259 5257 5255 5253 5252 5250 5248 5246 5244 5242 5240 5239
5308 5306 5303 5301 5299 5297 5294 5292 5290 5287 5285 5283 5280 5278 5276 5273 5271 5269 5267 5265 5263 5261 5259 5256 5254 5252 5250 5249 5247 5245 5244 5242 5240 5239 5237 5236 5234 5232 5231 5229 5227 5226 5225
5290 5288 5286 5284 5282 5279 5277 5275 5273 5271 5268 5266 5264 5261 5259 5256 5254 5252 5250 5248 5246 5244 5242 5240 5238 5236 5234 5232 5230 5229 5227 5225 5224 5222 5221 5220 5218 5217 5215 5214 5213 5212 5210